,,,PA_Meas_PMT16A,,PR_Meas_QMR101_102,,RH_Meas_QMH101,,SR_Meas_QMS101,,TA_Meas_QMH101,,GenWind,,GenWind,
date,time,status,PA,status,PR,status,RH,status,SR,status,TA,status,DirAvg,status,SpdAvg,
2009-11-25, 00:00:04,VALID,1002.41,VALID,0,VALID,93.0723,VALID,0,VALID,24.8892,VALID,351,VALID,0.201953,
2009-11-25, 00:01:04,VALID,1002.37,VALID,0,VALID,93.0723,VALID,0,VALID,24.9087,VALID,351,VALID,0,
2009-11-25, 00:02:04,VALID,1002.38,VALID,0,VALID,93.08,VALID,0,VALID,24.9282,VALID,351,VALID,0.283984,
2009-11-25, 00:03:04,VALID,1002.33,VALID,0,VALID,93.1334,VALID,0,VALID,24.9282,VALID,351,VALID,0.185156,
2009-11-25, 00:04:04,VALID,1002.34,VALID,0,VALID,93.0952,VALID,0,VALID,24.9282,VALID,351,VALID,0.237109,
2009-11-25, 00:05:04,VALID,1002.32,VALID,0,VALID,93.1181,VALID,0.100563,VALID,24.969,VALID,351,VALID,0.360156,
2009-11-25, 00:06:04,VALID,1002.3,VALID,0,VALID,93.0723,VALID,0,VALID,24.9282,VALID,351,VALID,0.321484,
2009-11-25, 00:07:04,VALID,1002.3,VALID,0,VALID,93.1257,VALID,0,VALID,24.9282,VALID,351,VALID,0.242578,
2009-11-25, 00:08:04,VALID,1002.28,VALID,0,VALID,93.141,VALID,0,VALID,24.9282,VALID,351,VALID,0.34375,
2009-11-25, 00:09:04,VALID,1002.3,VALID,0,VALID,93.1334,VALID,0,VALID,24.9282,VALID,351,VALID,0.332031,
2009-11-25, 00:10:04,VALID,1002.28,VALID,0,VALID,93.1563,VALID,0,VALID,24.9263,VALID,351,VALID,0.342969,
2009-11-25, 00:11:04,VALID,1002.29,VALID,0,VALID,93.1639,VALID,0.100563,VALID,24.9476,VALID,351,VALID,0.399609,
2009-11-25, 00:12:04,VALID,1002.28,VALID,0,VALID,93.1563,VALID,0,VALID,24.9263,VALID,351,VALID,0.393359,
2009-11-25, 00:13:04,VALID,1002.26,VALID,0,VALID,93.1715,VALID,0,VALID,24.9476,VALID,351,VALID,0.353125,
2009-11-25, 00:14:04,VALID,1002.26,VALID,0,VALID,93.1639,VALID,0.100563,VALID,24.9282,VALID,351,VALID,0.231641,
2009-11-25, 00:15:04,VALID,1002.25,VALID,0,VALID,93.1486,VALID,0,VALID,24.9282,VALID,351,VALID,0.264844,
2009-11-25, 00:16:04,VALID,1002.23,VALID,0,VALID,93.1563,VALID,0.100563,VALID,24.9087,VALID,351,VALID,0.0667969,
2009-11-25, 00:17:04,VALID,1002.23,VALID,0,VALID,93.1486,VALID,0,VALID,24.8892,VALID,351,VALID,0,
2009-11-25, 00:18:04,VALID,1002.26,VALID,0,VALID,93.1257,VALID,0,VALID,24.8697,VALID,351,VALID,0,
2009-11-25, 00:19:04,VALID,1002.26,VALID,0,VALID,93.0952,VALID,0.100563,VALID,24.8697,VALID,351,VALID,0,
2009-11-25, 00:20:04,VALID,1002.26,VALID,0,VALID,93.1105,VALID,0.100563,VALID,24.8289,VALID,351,VALID,0.402734,
2009-11-25, 00:21:04,VALID,1002.24,VALID,0,VALID,93.1334,VALID,0,VALID,24.8308,VALID,351,VALID,0.338672,
2009-11-25, 00:22:04,VALID,1002.27,VALID,0,VALID,93.2249,VALID,0,VALID,24.8716,VALID,351,VALID,0.485156,
2009-11-25, 00:23:04,VALID,1002.27,VALID,0,VALID,93.2783,VALID,0,VALID,24.8308,VALID,351,VALID,0.461719,
2009-11-25, 00:24:04,VALID,1002.27,VALID,0,VALID,93.3241,VALID,0.100563,VALID,24.8113,VALID,351,VALID,0.444531,
2009-11-25, 00:25:04,VALID,1002.28,VALID,0,VALID,93.347,VALID,0,VALID,24.8113,VALID,351,VALID,0.466797,
2009-11-25, 00:26:04,VALID,1002.27,VALID,0,VALID,93.3394,VALID,0,VALID,24.7724,VALID,351,VALID,0.410547,
2009-11-25, 00:27:04,VALID,1002.24,VALID,0,VALID,93.3241,VALID,0,VALID,24.7529,VALID,351,VALID,0.519141,
2009-11-25, 00:28:04,VALID,1002.24,VALID,0,VALID,93.4156,VALID,0,VALID,24.7335,VALID,351,VALID,0.441016,
2009-11-25, 00:29:04,VALID,1002.23,VALID,0,VALID,93.4614,VALID,0,VALID,24.714,VALID,351,VALID,0.392188,
2009-11-25, 00:30:04,VALID,1002.2,VALID,0,VALID,93.5758,VALID,0.100563,VALID,24.7121,VALID,351,VALID,0.576172,
2009-11-25, 00:31:04,VALID,1002.23,VALID,0,VALID,93.6674,VALID,0,VALID,24.7529,VALID,348,VALID,0.652344,
2009-11-25, 00:32:04,VALID,1002.19,VALID,0,VALID,93.7513,VALID,0,VALID,24.7937,VALID,351,VALID,0.437891,
2009-11-25, 00:33:04,VALID,1002.19,VALID,0,VALID,93.8352,VALID,0,VALID,24.79,VALID,351,VALID,0.284766,
2009-11-25, 00:34:04,VALID,1002.22,VALID,0,VALID,93.8429,VALID,0,VALID,24.8503,VALID,351,VALID,0.33125,
2009-11-25, 00:35:04,VALID,1002.21,VALID,0,VALID,93.8352,VALID,0,VALID,24.9106,VALID,354,VALID,0.461719,
2009-11-25, 00:36:04,VALID,1002.24,VALID,0,VALID,93.7895,VALID,0.100563,VALID,24.9106,VALID,354,VALID,0.321875,
2009-11-25, 00:37:04,VALID,1002.23,VALID,0,VALID,93.7437,VALID,0,VALID,24.8679,VALID,354,VALID,0.321094,
2009-11-25, 00:38:04,VALID,1002.25,VALID,0,VALID,93.6521,VALID,0.100563,VALID,24.93,VALID,354,VALID,0.347266,
2009-11-25, 00:39:04,VALID,1002.25,VALID,0,VALID,93.5911,VALID,0.100563,VALID,24.9087,VALID,354,VALID,0.407813,
2009-11-25, 00:40:04,VALID,1002.26,VALID,0,VALID,93.5987,VALID,0.100563,VALID,24.8873,VALID,354,VALID,0.492578,
2009-11-25, 00:41:04,VALID,1002.24,VALID,0,VALID,93.6216,VALID,0,VALID,24.9282,VALID,349,VALID,0.721875,
2009-11-25, 00:42:04,VALID,1002.27,VALID,0,VALID,93.6369,VALID,0.100563,VALID,24.9671,VALID,347,VALID,0.648438,
2009-11-25, 00:43:04,VALID,1002.22,VALID,0,VALID,93.6292,VALID,0,VALID,24.9671,VALID,350,VALID,0.680469,
2009-11-25, 00:44:04,VALID,1002.21,VALID,0,VALID,93.5453,VALID,0,VALID,24.9866,VALID,358,VALID,0.717969,
2009-11-25, 00:45:04,VALID,1002.18,VALID,0,VALID,93.4843,VALID,0,VALID,24.9866,VALID,357,VALID,0.5625,
2009-11-25, 00:46:04,VALID,1002.19,VALID,0,VALID,93.408,VALID,0,VALID,24.9866,VALID,355,VALID,0.512109,
2009-11-25, 00:47:04,VALID,1002.17,VALID,0,VALID,93.4004,VALID,0.100563,VALID,24.9866,VALID,355,VALID,0.425781,
2009-11-25, 00:48:04,VALID,1002.14,VALID,0,VALID,93.3622,VALID,0,VALID,24.9866,VALID,355,VALID,0.441406,
2009-11-25, 00:49:04,VALID,1002.16,VALID,0,VALID,93.3546,VALID,0,VALID,25.006,VALID,355,VALID,0.442187,
2009-11-25, 00:50:04,VALID,1002.14,VALID,0,VALID,93.3622,VALID,0.100563,VALID,25.0469,VALID,355,VALID,0.492969,
2009-11-25, 00:51:04,VALID,1002.13,VALID,0,VALID,93.347,VALID,0,VALID,25.0644,VALID,351,VALID,0.535156,
2009-11-25, 00:52:04,VALID,1002.14,VALID,0,VALID,93.2859,VALID,0,VALID,25.0644,VALID,350,VALID,0.467187,
2009-11-25, 00:53:04,VALID,1002.09,VALID,0,VALID,93.1639,VALID,0,VALID,25.0431,VALID,350,VALID,0.337891,
2009-11-25, 00:54:04,VALID,1002.1,VALID,0,VALID,93.0342,VALID,0,VALID,25.0644,VALID,350,VALID,0.515234,
2009-11-25, 00:55:04,VALID,1002.07,VALID,0,VALID,93.0113,VALID,0,VALID,25.0644,VALID,350,VALID,0.432422,
2009-11-25, 00:56:04,VALID,1002.06,VALID,0,VALID,93.0342,VALID,0.100563,VALID,25.0644,VALID,350,VALID,0.546875,
2009-11-25, 00:57:04,VALID,1002.03,VALID,0,VALID,93.0266,VALID,0,VALID,25.0625,VALID,350,VALID,0.435937,
2009-11-25, 00:58:04,VALID,1002.02,VALID,0,VALID,93.0037,VALID,0.100563,VALID,25.0839,VALID,350,VALID,0.380859,
2009-11-25, 00:59:04,VALID,1002.02,VALID,0,VALID,93.0647,VALID,0,VALID,25.1229,VALID,350,VALID,0.2875,
2009-11-25, 01:00:04,VALID,1002.01,VALID,0,VALID,93.08,VALID,0.100563,VALID,25.1813,VALID,350,VALID,0.4625,
2009-11-25, 01:01:04,VALID,1002.02,VALID,0,VALID,92.9655,VALID,0,VALID,25.2416,VALID,350,VALID,0.416016,
2009-11-25, 01:02:04,VALID,1002,VALID,0,VALID,92.7977,VALID,0,VALID,25.2592,VALID,350,VALID,0.458594,
2009-11-25, 01:03:04,VALID,1001.99,VALID,0,VALID,92.5917,VALID,0,VALID,25.2786,VALID,350,VALID,0.349219,
2009-11-25, 01:04:04,VALID,1002.03,VALID,0,VALID,92.4544,VALID,0.100563,VALID,25.3176,VALID,350,VALID,0.530469,
2009-11-25, 01:05:04,VALID,1002.02,VALID,0,VALID,92.2866,VALID,0,VALID,25.339,VALID,350,VALID,0.35,
2009-11-25, 01:06:04,VALID,1002.01,VALID,0,VALID,92.3018,VALID,0.100563,VALID,25.376,VALID,350,VALID,0.378516,
2009-11-25, 01:07:04,VALID,1002.02,VALID,0,VALID,92.1492,VALID,0.100563,VALID,25.4149,VALID,350,VALID,0.547266,
2009-11-25, 01:08:04,VALID,1002.03,VALID,0,VALID,91.9814,VALID,0.100563,VALID,25.413,VALID,350,VALID,0.316797,
2009-11-25, 01:09:04,VALID,1002.03,VALID,0,VALID,91.8212,VALID,0.100563,VALID,25.4539,VALID,350,VALID,0.233203,
2009-11-25, 01:10:04,VALID,1002.03,VALID,0,VALID,91.661,VALID,0.100563,VALID,25.4539,VALID,350,VALID,0.173047,
2009-11-25, 01:11:04,VALID,1002.02,VALID,0,VALID,91.5618,VALID,0.100563,VALID,25.4948,VALID,350,VALID,0.141797,
2009-11-25, 01:12:04,VALID,1002.02,VALID,0,VALID,91.5618,VALID,0,VALID,25.4928,VALID,350,VALID,0.231641,
2009-11-25, 01:13:04,VALID,1002.02,VALID,0,VALID,91.5542,VALID,0,VALID,25.5142,VALID,350,VALID,0.225,
2009-11-25, 01:14:04,VALID,1002.01,VALID,0,VALID,91.4855,VALID,0,VALID,25.5142,VALID,350,VALID,0.0375,
2009-11-25, 01:15:04,VALID,1002.01,VALID,0,VALID,91.3406,VALID,0,VALID,25.5318,VALID,350,VALID,0.333594,
2009-11-25, 01:16:04,VALID,1001.99,VALID,0,VALID,91.2643,VALID,0,VALID,25.5532,VALID,350,VALID,0.2875,
2009-11-25, 01:17:04,VALID,1002.01,VALID,0,VALID,91.1804,VALID,0,VALID,25.5746,VALID,350,VALID,0.385156,
2009-11-25, 01:18:04,VALID,1001.98,VALID,0,VALID,91.2033,VALID,0,VALID,25.5513,VALID,352,VALID,0.547656,
2009-11-25, 01:19:04,VALID,1001.96,VALID,0,VALID,91.0965,VALID,0,VALID,25.5921,VALID,350,VALID,0.494141,
2009-11-25, 01:20:04,VALID,1001.97,VALID,0,VALID,91.0431,VALID,0,VALID,25.5727,VALID,350,VALID,0.426953,
2009-11-25, 01:21:04,VALID,1001.91,VALID,0,VALID,90.7837,VALID,0,VALID,25.5337,VALID,350,VALID,0.528125,
2009-11-25, 01:22:04,VALID,1001.9,VALID,0,VALID,90.6998,VALID,0,VALID,25.4558,VALID,350,VALID,0.498047,
2009-11-25, 01:23:04,VALID,1001.89,VALID,0,VALID,90.9591,VALID,0,VALID,25.4383,VALID,350,VALID,0.303516,
2009-11-25, 01:24:04,VALID,1001.87,VALID,0,VALID,91.3024,VALID,0,VALID,25.3779,VALID,350,VALID,0.504687,
2009-11-25, 01:25:04,VALID,1001.85,VALID,0,VALID,91.4703,VALID,0,VALID,25.3584,VALID,350,VALID,0.415234,
2009-11-25, 01:26:04,VALID,1001.81,VALID,0,VALID,91.6229,VALID,0,VALID,25.3176,VALID,350,VALID,0.496875,
2009-11-25, 01:27:04,VALID,1001.81,VALID,0,VALID,91.7144,VALID,0,VALID,25.3,VALID,350,VALID,0.635547,
2009-11-25, 01:28:04,VALID,1001.79,VALID,0,VALID,91.7983,VALID,0.100563,VALID,25.2592,VALID,350,VALID,0.381641,
2009-11-25, 01:29:04,VALID,1001.76,VALID,0,VALID,92.0806,VALID,0,VALID,25.2397,VALID,350,VALID,0.358594,
2009-11-25, 01:30:04,VALID,1001.76,VALID,0,VALID,92.2713,VALID,0.100563,VALID,25.2202,VALID,350,VALID,0.340625,
2009-11-25, 01:31:04,VALID,1001.78,VALID,0,VALID,92.3857,VALID,0,VALID,25.2202,VALID,350,VALID,0,
2009-11-25, 01:32:04,VALID,1001.75,VALID,0,VALID,92.5307,VALID,0,VALID,25.2397,VALID,350,VALID,0,
2009-11-25, 01:33:04,VALID,1001.74,VALID,0,VALID,92.5688,VALID,0,VALID,25.2202,VALID,350,VALID,0,
2009-11-25, 01:34:04,VALID,1001.7,VALID,0,VALID,92.5307,VALID,0.100563,VALID,25.2397,VALID,350,VALID,0.412891,
2009-11-25, 01:35:04,VALID,1001.67,VALID,0,VALID,92.462,VALID,0,VALID,25.2202,VALID,350,VALID,0.507422,
2009-11-25, 01:36:04,VALID,1001.65,VALID,0,VALID,92.462,VALID,0.100563,VALID,25.2027,VALID,350,VALID,0.541797,
2009-11-25, 01:37:04,VALID,1001.63,VALID,0,VALID,92.4468,VALID,0.100563,VALID,25.1423,VALID,350,VALID,0.315234,
2009-11-25, 01:38:04,VALID,1001.62,VALID,0,VALID,92.5383,VALID,0,VALID,25.1442,VALID,350,VALID,0.355859,
2009-11-25, 01:39:04,VALID,1001.58,VALID,0,VALID,92.6299,VALID,0.100563,VALID,25.1034,VALID,350,VALID,0.202734,
2009-11-25, 01:40:04,VALID,1001.56,VALID,0,VALID,92.7519,VALID,0.100563,VALID,25.1034,VALID,350,VALID,0.0191406,
2009-11-25, 01:41:04,VALID,1001.57,VALID,0,VALID,92.8435,VALID,0.100563,VALID,25.0839,VALID,350,VALID,0.198828,
2009-11-25, 01:42:04,VALID,1001.53,VALID,0,VALID,92.9274,VALID,0.100563,VALID,25.1034,VALID,350,VALID,0.232812,
2009-11-25, 01:43:04,VALID,1001.56,VALID,0,VALID,93.0113,VALID,0,VALID,25.1034,VALID,350,VALID,0,
2009-11-25, 01:44:04,VALID,1001.55,VALID,0,VALID,93.08,VALID,0,VALID,25.1229,VALID,350,VALID,0.0867188,
2009-11-25, 01:45:04,VALID,1001.53,VALID,0,VALID,93.0571,VALID,0.100563,VALID,25.1618,VALID,350,VALID,0.199609,
2009-11-25, 01:46:04,VALID,1001.52,VALID,0,VALID,93.0418,VALID,0,VALID,25.1423,VALID,350,VALID,0.415234,
2009-11-25, 01:47:04,VALID,1001.53,VALID,0,VALID,92.9884,VALID,0.100563,VALID,25.1423,VALID,350,VALID,0.342969,
2009-11-25, 01:48:04,VALID,1001.51,VALID,0,VALID,92.9198,VALID,0,VALID,25.1423,VALID,350,VALID,0.444531,
2009-11-25, 01:49:04,VALID,1001.5,VALID,0,VALID,92.8664,VALID,0.100563,VALID,25.1618,VALID,350,VALID,0.526563,
2009-11-25, 01:50:04,VALID,1001.48,VALID,0,VALID,92.8969,VALID,0.100563,VALID,25.1618,VALID,350,VALID,0.480078,
2009-11-25, 01:51:04,VALID,1001.49,VALID,0,VALID,92.9198,VALID,0.100563,VALID,25.1618,VALID,350,VALID,0.364844,
2009-11-25, 01:52:04,VALID,1001.46,VALID,0,VALID,92.9426,VALID,0.100563,VALID,25.1813,VALID,351,VALID,0.539453,
2009-11-25, 01:53:04,VALID,1001.43,VALID,0,VALID,92.9121,VALID,0,VALID,25.1618,VALID,352,VALID,0.569922,
2009-11-25, 01:54:04,VALID,1001.44,VALID,0,VALID,92.935,VALID,0.100563,VALID,25.1618,VALID,354,VALID,0.5875,
2009-11-25, 01:55:04,VALID,1001.41,VALID,0,VALID,92.9732,VALID,0,VALID,25.1618,VALID,354,VALID,0.561328,
2009-11-25, 01:56:04,VALID,1001.41,VALID,0,VALID,92.8892,VALID,0.100563,VALID,25.1423,VALID,354,VALID,0.54375,
2009-11-25, 01:57:04,VALID,1001.37,VALID,0,VALID,92.8816,VALID,0,VALID,25.1229,VALID,354,VALID,0.539453,
2009-11-25, 01:58:04,VALID,1001.34,VALID,0,VALID,92.9121,VALID,0,VALID,25.1034,VALID,354,VALID,0.479297,
2009-11-25, 01:59:04,VALID,1001.32,VALID,0,VALID,93.0189,VALID,0,VALID,25.0839,VALID,354,VALID,0.419922,
2009-11-25, 02:00:04,VALID,1001.29,VALID,0,VALID,93.141,VALID,0,VALID,25.1248,VALID,354,VALID,0.560156,
2009-11-25, 02:01:04,VALID,1001.28,VALID,0,VALID,93.1715,VALID,0.100563,VALID,25.1034,VALID,354,VALID,0.375,
2009-11-25, 02:02:04,VALID,1001.24,VALID,0,VALID,93.202,VALID,0,VALID,25.0839,VALID,354,VALID,0.357031,
2009-11-25, 02:03:04,VALID,1001.22,VALID,0,VALID,93.2554,VALID,0,VALID,25.1034,VALID,354,VALID,0.369922,
2009-11-25, 02:04:04,VALID,1001.22,VALID,0,VALID,93.2631,VALID,0,VALID,25.1034,VALID,354,VALID,0.388672,
2009-11-25, 02:05:04,VALID,1001.21,VALID,0,VALID,93.2859,VALID,0.100563,VALID,25.1015,VALID,354,VALID,0.478906,
2009-11-25, 02:06:04,VALID,1001.19,VALID,0,VALID,93.2783,VALID,0,VALID,25.1229,VALID,354,VALID,0.422266,
2009-11-25, 02:07:04,VALID,1001.18,VALID,0,VALID,93.2859,VALID,0,VALID,25.1229,VALID,354,VALID,0.403906,
2009-11-25, 02:08:04,VALID,1001.17,VALID,0,VALID,93.2554,VALID,0,VALID,25.1229,VALID,354,VALID,0.366016,
2009-11-25, 02:09:04,VALID,1001.14,VALID,0,VALID,93.2478,VALID,0,VALID,25.1034,VALID,354,VALID,0.502734,
2009-11-25, 02:10:04,VALID,1001.14,VALID,0,VALID,93.2173,VALID,0,VALID,25.1229,VALID,354,VALID,0.622656,
2009-11-25, 02:11:04,VALID,1001.15,VALID,0,VALID,93.1944,VALID,0,VALID,25.0839,VALID,347,VALID,0.389062,
2009-11-25, 02:12:04,VALID,1001.17,VALID,0,VALID,93.2402,VALID,0,VALID,25.082,VALID,346,VALID,0.397656,
2009-11-25, 02:13:04,VALID,1001.16,VALID,0,VALID,93.2478,VALID,0,VALID,25.0625,VALID,346,VALID,0.429688,
2009-11-25, 02:14:04,VALID,1001.17,VALID,0,VALID,93.2631,VALID,0,VALID,25.0839,VALID,346,VALID,0.391797,
2009-11-25, 02:15:04,VALID,1001.18,VALID,0,VALID,93.2554,VALID,0.100563,VALID,25.1034,VALID,346,VALID,0.515625,
2009-11-25, 02:16:04,VALID,1001.21,VALID,0,VALID,93.2631,VALID,0.100563,VALID,25.0839,VALID,346,VALID,0.470703,
2009-11-25, 02:17:04,VALID,1001.2,VALID,0,VALID,93.2707,VALID,0,VALID,25.0839,VALID,346,VALID,0.289844,
2009-11-25, 02:18:04,VALID,1001.21,VALID,0,VALID,93.2402,VALID,0,VALID,25.0839,VALID,346,VALID,0.360547,
2009-11-25, 02:19:04,VALID,1001.21,VALID,0,VALID,93.2707,VALID,0,VALID,25.0839,VALID,346,VALID,0.378125,
2009-11-25, 02:20:04,VALID,1001.21,VALID,0,VALID,93.2783,VALID,0,VALID,25.0644,VALID,346,VALID,0.372656,
2009-11-25, 02:21:04,VALID,1001.19,VALID,0,VALID,93.2936,VALID,0,VALID,25.1053,VALID,346,VALID,0.457031,
2009-11-25, 02:22:04,VALID,1001.17,VALID,0,VALID,93.2478,VALID,0,VALID,25.045,VALID,346,VALID,0.430469,
2009-11-25, 02:23:04,VALID,1001.19,VALID,0,VALID,93.2097,VALID,0,VALID,25.0644,VALID,346,VALID,0.362109,
2009-11-25, 02:24:04,VALID,1001.19,VALID,0,VALID,93.2478,VALID,0,VALID,25.045,VALID,346,VALID,0.289453,
2009-11-25, 02:25:04,VALID,1001.2,VALID,0,VALID,93.3165,VALID,0,VALID,25.0255,VALID,346,VALID,0.301562,
2009-11-25, 02:26:04,VALID,1001.21,VALID,0,VALID,93.3622,VALID,0,VALID,25.045,VALID,345,VALID,0.295703,
2009-11-25, 02:27:04,VALID,1001.25,VALID,0,VALID,93.4156,VALID,0,VALID,25.045,VALID,345,VALID,0.4125,
2009-11-25, 02:28:04,VALID,1001.21,VALID,0,VALID,93.4614,VALID,0,VALID,25.0858,VALID,345,VALID,0.255078,
2009-11-25, 02:29:04,VALID,1001.17,VALID,0,VALID,93.4538,VALID,0,VALID,25.0644,VALID,346,VALID,0.457031,
2009-11-25, 02:30:04,VALID,1001.15,VALID,0,VALID,93.4156,VALID,0,VALID,25.0839,VALID,347,VALID,0.373828,
2009-11-25, 02:31:04,VALID,1001.14,VALID,0,VALID,93.3012,VALID,0,VALID,25.0644,VALID,347,VALID,0.496484,
2009-11-25, 02:32:04,VALID,1001.11,VALID,0,VALID,93.202,VALID,0.100563,VALID,25.045,VALID,347,VALID,0.389062,
2009-11-25, 02:33:04,VALID,1001.12,VALID,0,VALID,93.2478,VALID,0,VALID,25.045,VALID,347,VALID,0.447656,
2009-11-25, 02:34:04,VALID,1001.09,VALID,0,VALID,93.3317,VALID,0,VALID,25.0255,VALID,347,VALID,0.355859,
2009-11-25, 02:35:04,VALID,1001.09,VALID,0,VALID,93.3394,VALID,0,VALID,25.006,VALID,347,VALID,0.333594,
2009-11-25, 02:36:04,VALID,1001.08,VALID,0,VALID,93.3699,VALID,0.100563,VALID,25.0255,VALID,347,VALID,0.338672,
2009-11-25, 02:37:04,VALID,1001.09,VALID,0,VALID,93.4996,VALID,0,VALID,25.045,VALID,347,VALID,0.410937,
2009-11-25, 02:38:04,VALID,1001.11,VALID,0,VALID,93.5758,VALID,0,VALID,25.0858,VALID,347,VALID,0.303125,
2009-11-25, 02:39:04,VALID,1001.08,VALID,0,VALID,93.614,VALID,0,VALID,25.0644,VALID,347,VALID,0.328906,
2009-11-25, 02:40:04,VALID,1001.09,VALID,0,VALID,93.5758,VALID,0,VALID,25.0644,VALID,347,VALID,0.372266,
2009-11-25, 02:41:04,VALID,1001.11,VALID,0,VALID,93.5987,VALID,0,VALID,25.0839,VALID,347,VALID,0.448438,
2009-11-25, 02:42:04,VALID,1001.11,VALID,0,VALID,93.5682,VALID,0,VALID,25.1034,VALID,347,VALID,0.316797,
2009-11-25, 02:43:04,VALID,1001.11,VALID,0,VALID,93.5377,VALID,0,VALID,25.0839,VALID,347,VALID,0.367188,
2009-11-25, 02:44:04,VALID,1001.1,VALID,0,VALID,93.5148,VALID,0,VALID,25.1034,VALID,347,VALID,0.461719,
2009-11-25, 02:45:04,VALID,1001.12,VALID,0,VALID,93.4767,VALID,0,VALID,25.0839,VALID,347,VALID,0.329688,
2009-11-25, 02:46:04,VALID,1001.11,VALID,0,VALID,93.347,VALID,0,VALID,25.0839,VALID,347,VALID,0.268359,
2009-11-25, 02:47:04,VALID,1001.11,VALID,0,VALID,93.4156,VALID,0,VALID,25.1248,VALID,347,VALID,0.371875,
2009-11-25, 02:48:04,VALID,1001.12,VALID,0,VALID,93.4309,VALID,0.100563,VALID,25.1229,VALID,346,VALID,0.3,
2009-11-25, 02:49:04,VALID,1001.14,VALID,0,VALID,93.3394,VALID,0.100563,VALID,25.1034,VALID,346,VALID,0.380078,
2009-11-25, 02:50:04,VALID,1001.18,VALID,0,VALID,93.3165,VALID,0,VALID,25.1442,VALID,346,VALID,0.301953,
2009-11-25, 02:51:04,VALID,1001.15,VALID,0,VALID,93.3012,VALID,0.100563,VALID,25.1423,VALID,346,VALID,0.393359,
2009-11-25, 02:52:04,VALID,1001.16,VALID,0,VALID,93.2783,VALID,0.100563,VALID,25.1423,VALID,346,VALID,0.315234,
2009-11-25, 02:53:04,VALID,1001.16,VALID,0,VALID,93.202,VALID,0,VALID,25.1423,VALID,346,VALID,0.233203,
2009-11-25, 02:54:04,VALID,1001.13,VALID,0,VALID,93.2325,VALID,0,VALID,25.1618,VALID,346,VALID,0.140625,
2009-11-25, 02:55:04,VALID,1001.15,VALID,0,VALID,93.1105,VALID,0.100563,VALID,25.1229,VALID,346,VALID,0.105859,
2009-11-25, 02:56:04,VALID,1001.13,VALID,0,VALID,93.1563,VALID,0,VALID,25.1423,VALID,346,VALID,0.248047,
2009-11-25, 02:57:04,VALID,1001.14,VALID,0,VALID,93.141,VALID,0,VALID,25.1618,VALID,346,VALID,0.395703,
2009-11-25, 02:58:04,VALID,1001.14,VALID,0,VALID,93.1334,VALID,0,VALID,25.1618,VALID,346,VALID,0.411719,
2009-11-25, 02:59:04,VALID,1001.14,VALID,0,VALID,93.1639,VALID,0,VALID,25.2007,VALID,346,VALID,0.498047,
2009-11-25, 03:00:04,VALID,1001.17,VALID,0,VALID,93.0647,VALID,0,VALID,25.1832,VALID,343,VALID,0.505859,
2009-11-25, 03:01:04,VALID,1001.18,VALID,0,VALID,93.0342,VALID,0.100563,VALID,25.1813,VALID,345,VALID,0.317187,
2009-11-25, 03:02:04,VALID,1001.22,VALID,0,VALID,93.0571,VALID,0,VALID,25.2027,VALID,346,VALID,0.442969,
2009-11-25, 03:03:04,VALID,1001.18,VALID,0,VALID,92.9503,VALID,0,VALID,25.1618,VALID,346,VALID,0.303516,
2009-11-25, 03:04:04,VALID,1001.16,VALID,0,VALID,92.813,VALID,0,VALID,25.1034,VALID,346,VALID,0.463672,
2009-11-25, 03:05:04,VALID,1001.14,VALID,0,VALID,92.6985,VALID,0.100563,VALID,25.0431,VALID,346,VALID,0.476953,
2009-11-25, 03:06:04,VALID,1001.16,VALID,0,VALID,92.7367,VALID,0.100563,VALID,25.0236,VALID,346,VALID,0.444922,
2009-11-25, 03:07:04,VALID,1001.15,VALID,0,VALID,92.9732,VALID,0,VALID,25.045,VALID,344,VALID,0.442187,
2009-11-25, 03:08:04,VALID,1001.19,VALID,0,VALID,93.1334,VALID,0.100563,VALID,25.0236,VALID,345,VALID,0.363281,
2009-11-25, 03:09:04,VALID,1001.21,VALID,0,VALID,93.2325,VALID,0.100563,VALID,25.0644,VALID,344,VALID,0.524219,
2009-11-25, 03:10:04,VALID,1001.23,VALID,0,VALID,93.3928,VALID,0,VALID,25.0644,VALID,347,VALID,0.419531,
2009-11-25, 03:11:04,VALID,1001.22,VALID,0,VALID,93.4385,VALID,0.100563,VALID,25.0839,VALID,348,VALID,0.470703,
2009-11-25, 03:12:04,VALID,1001.27,VALID,0,VALID,93.4614,VALID,0,VALID,25.082,VALID,348,VALID,0.417188,
2009-11-25, 03:13:04,VALID,1001.24,VALID,0,VALID,93.3851,VALID,0.100563,VALID,25.0431,VALID,348,VALID,0.459375,
2009-11-25, 03:14:04,VALID,1001.27,VALID,0,VALID,93.2631,VALID,0,VALID,25.0236,VALID,348,VALID,0.336328,
2009-11-25, 03:15:04,VALID,1001.24,VALID,0,VALID,93.2325,VALID,0,VALID,25.006,VALID,348,VALID,0.483594,
2009-11-25, 03:16:04,VALID,1001.28,VALID,0,VALID,93.2707,VALID,0.100563,VALID,25.006,VALID,348,VALID,0.392578,
2009-11-25, 03:17:04,VALID,1001.31,VALID,0,VALID,93.3241,VALID,0,VALID,25.006,VALID,347,VALID,0.434375,
2009-11-25, 03:18:04,VALID,1001.29,VALID,0,VALID,93.3851,VALID,0,VALID,24.9866,VALID,347,VALID,0.526172,
2009-11-25, 03:19:04,VALID,1001.33,VALID,0,VALID,93.4538,VALID,0,VALID,24.9866,VALID,347,VALID,0.457422,
2009-11-25, 03:20:04,VALID,1001.33,VALID,0,VALID,93.4156,VALID,0.100563,VALID,24.9671,VALID,347,VALID,0.458203,
2009-11-25, 03:21:04,VALID,1001.34,VALID,0,VALID,93.4385,VALID,0.100563,VALID,24.9282,VALID,347,VALID,0.480078,
2009-11-25, 03:22:04,VALID,1001.34,VALID,0,VALID,93.5072,VALID,0,VALID,24.969,VALID,347,VALID,0.547266,
2009-11-25, 03:23:04,VALID,1001.35,VALID,0,VALID,93.5453,VALID,0,VALID,24.9087,VALID,347,VALID,0.419141,
2009-11-25, 03:24:04,VALID,1001.37,VALID,0,VALID,93.6445,VALID,0,VALID,24.9068,VALID,347,VALID,0.576563,
2009-11-25, 03:25:04,VALID,1001.38,VALID,0,VALID,93.7055,VALID,0,VALID,24.9087,VALID,347,VALID,0.338672,
2009-11-25, 03:26:04,VALID,1001.41,VALID,0,VALID,93.7666,VALID,0.100563,VALID,24.9282,VALID,347,VALID,0.437891,
2009-11-25, 03:27:04,VALID,1001.41,VALID,0,VALID,93.8047,VALID,0,VALID,24.9068,VALID,346,VALID,0.488281,
2009-11-25, 03:28:04,VALID,1001.41,VALID,0,VALID,93.8276,VALID,0,VALID,24.9282,VALID,346,VALID,0.478125,
2009-11-25, 03:29:04,VALID,1001.44,VALID,0,VALID,93.8047,VALID,0.100563,VALID,24.8892,VALID,346,VALID,0.442578,
2009-11-25, 03:30:04,VALID,1001.41,VALID,0,VALID,93.7437,VALID,0,VALID,24.8697,VALID,346,VALID,0.324609,
2009-11-25, 03:31:04,VALID,1001.41,VALID,0,VALID,93.8123,VALID,0,VALID,24.8697,VALID,346,VALID,0.346094,
2009-11-25, 03:32:04,VALID,1001.4,VALID,0,VALID,93.8581,VALID,0,VALID,24.9087,VALID,346,VALID,0.324609,
2009-11-25, 03:33:04,VALID,1001.39,VALID,0,VALID,93.9344,VALID,0,VALID,24.93,VALID,346,VALID,0.241406,
2009-11-25, 03:34:04,VALID,1001.41,VALID,0,VALID,93.9954,VALID,0,VALID,24.9476,VALID,346,VALID,0.384766,
2009-11-25, 03:35:04,VALID,1001.43,VALID,0,VALID,94.0794,VALID,0,VALID,24.9476,VALID,346,VALID,0.389062,
2009-11-25, 03:36:04,VALID,1001.41,VALID,0,VALID,94.1175,VALID,0,VALID,24.9866,VALID,346,VALID,0.430469,
2009-11-25, 03:37:04,VALID,1001.4,VALID,0,VALID,94.1175,VALID,0,VALID,24.9847,VALID,346,VALID,0.406641,
2009-11-25, 03:38:04,VALID,1001.41,VALID,0,VALID,94.1175,VALID,0.100563,VALID,24.9847,VALID,346,VALID,0.402734,
2009-11-25, 03:39:04,VALID,1001.39,VALID,0,VALID,94.0259,VALID,0,VALID,24.9866,VALID,346,VALID,0.383984,
2009-11-25, 03:40:04,VALID,1001.4,VALID,0,VALID,93.9039,VALID,0,VALID,24.9476,VALID,346,VALID,0.436328,